This is the latest recevied weather packets stored in our database for station/object KB9ZI. If no packets are shown the sender has not sent any weather packets the latest 10 day(s).
| Time | Temp. | Humidity | Pressure | Rain* | Wind** | Luminosity | Snow |
|---|---|---|---|---|---|---|---|
| 1777648122 | 9.44° C | 52% | 1018.7 hPa | 0 mm | - | - | - |
| 1777647795 | 9.44° C | 50% | 1018.6 hPa | 0 mm | - | - | - |
| 1777647692 | 8.89° C | 49% | 1018.7 hPa | 0 mm | - | - | - |
| 1777647554 | 8.89° C | 48% | 1018.6 hPa | 0 mm | - | - | - |
| 1777647521 | 8.89° C | 50% | 1018.7 hPa | 0 mm | - | - | - |
| 1777647316 | 8.89° C | 51% | 1018.7 hPa | 0 mm | - | - | - |
| 1777647194 | 8.89° C | 51% | 1018.8 hPa | 0 mm | - | - | - |
| 1777647080 | 8.89° C | 49% | 1018.7 hPa | 0 mm | - | - | - |
| 1777647017 | 8.89° C | 52% | 1018.7 hPa | 0 mm | - | - | - |
| 1777646836 | 8.89° C | 50% | 1018.6 hPa | 0 mm | - | - | - |
| 1777646716 | 8.89° C | 50% | 1018.6 hPa | 0 mm | - | - | - |
| 1777646587 | 8.33° C | 50% | 1018.8 hPa | 0 mm | - | - | - |
| 1777646432 | 8.33° C | 50% | 1018.8 hPa | 0 mm | - | - | - |
| 1777646300 | 8.33° C | 48% | 1018.7 hPa | 0 mm | - | - | - |
| 1777646182 | 8.89° C | 49% | 1018.7 hPa | 0 mm | - | - | - |
| 1777646055 | 8.89° C | 51% | 1018.7 hPa | 0 mm | - | - | - |
| 1777645996 | 8.33° C | 50% | 1018.7 hPa | 0 mm | - | - | - |
| 1777645820 | 8.89° C | 51% | 1018.7 hPa | 0 mm | - | - | - |
| 1777645695 | 8.33° C | 50% | 1018.7 hPa | 0 mm | - | - | - |
| 1777645584 | 8.33° C | 50% | 1018.7 hPa | 0 mm | - | - | - |
| 1777645455 | 8.33° C | 49% | 1018.6 hPa | 0 mm | - | - | - |
| 1777645335 | 8.33° C | 49% | 1018.7 hPa | 0 mm | - | - | - |
| 1777645214 | 8.33° C | 51% | 1018.7 hPa | 0 mm | - | - | - |
| 1777645094 | 8.33° C | 49% | 1018.7 hPa | 0 mm | - | - | - |
| 1777644979 | 8.89° C | 52% | 1018.6 hPa | 0 mm | - | - | - |
* Rain latest hour (hover to see other rain measurements)
** Current wind speed in m/s (hover to see current wind gust speed)